Location: Schommer Observatory
(40.5200°N, 74.4500°W)
Time: 05:26:36
(UTC-04:00)

N. Korean satellite - Pass Details

Date: 09 October 2017
Orbit: 459 x 517 km, 97.2° (Epoch: 23 October)

Event Time Altitude Azimuth Distance (km) Brightness Sun altitude
Rises 19:45:43 0° 196° (SSW) 2,574 10.4 -15.8°
Reaches altitude 10° 19:48:08 10° 212° (SSW) 1,685 9.6 -16.3°
Maximum altitude 19:51:01 22° 265° (W) 1,110 9.3 -16.9°
Drops below altitude 10° 19:53:53 10° 318° (NW) 1,670 10.0 -17.4°
Sets 19:56:16 0° 334° (NNW) 2,544 10.7 -17.8°
